Weather History for Valley City, ND

Change the Weather History Date:

Tuesday, February 12, 2013

  Actual Average (KJMS) Record (KJMS)
Temperature  
Mean Temperature 22 °F 14 °F  
Max Temperature 30 °F 24 °F 55 °F (1898)
Min Temperature 14 °F 4 °F -39 °F (1905)
Degree Days  
Heating Degree Days 43 51  
Month to date heating degree days 630  
Since 1 July heating degree days 5992  
Cooling Degree Days 0 0  
Month to date cooling degree days 0  
Year to date cooling degree days 0  
Moisture  
Dew Point 19 °F    
Average Humidity 87    
Maximum Humidity 93    
Minimum Humidity 79    
Precipitation  
Precipitation 0.00 in 0.02 in 0.13 in (1984)
Month to date precipitation 0.13  
Year to date precipitation 0.58  
Sea Level Pressure  
Sea Level Pressure 29.78 in    
Wind  
Wind Speed 15 mph (West)    
Max Wind Speed 21 mph    
Max Gust Speed 23 mph    
Visibility 10 miles    
Events Snow    
T = Trace of Precipitation, MM = Missing Value Source: NWS Daily Summary

Daily Weather History Graph

Daily Weather History Graph

Search for Another Location

Airport:

Trip Planner

Search our weather history database for the weather conditions in past years. The results will help you decide how hot, cold, wet, or windy it might be!

Date:

Astronomy

Feb. 12, 2013 Rise Set
Actual Time 7:40 AM CST 5:52 PM CST
Civil Twilight 7:09 AM CST 6:24 PM CST
Nautical Twilight 6:33 AM CST 6:59 PM CST
Astronomical Twilight 5:58 AM CST 7:35 PM CST
Moon 8:25 AM CST (2/12) 9:10 PM CST (2/12)
Length of Visible Light 11h 14m
Length of Day
10h 11m
Waxing Crescent, 7% of the Moon is Illuminated
Feb 12
Waxing Crescent
Feb 17
First Quarter
Feb 25
Full
Mar 4
Last Quarter
Mar 11
New

Hourly Weather History & Observations

Time (CST) Temp. Windchill Dew Point Humidity Pressure Visibility Wind Dir Wind Speed Gust Speed Precip Events Conditions
12:15 AM 19.4 °F 4.1 °F 17.6 °F 93% 29.85 in 10.0 mi SW 18.4 mph - N/A Snow Light Snow
12:35 AM 19.4 °F 4.5 °F 17.6 °F 93% 29.84 in 10.0 mi SSW 17.3 mph 23.0 mph N/A Snow Light Snow
12:55 AM 19.4 °F 6.0 °F 17.6 °F 93% 29.83 in 10.0 mi SSW 13.8 mph - N/A   Overcast
1:15 AM 21.2 °F 6.8 °F 17.6 °F 86% 29.82 in 10.0 mi SSW 17.3 mph - N/A Snow Light Snow
1:35 AM 19.4 °F 5.0 °F 17.6 °F 93% 29.80 in 10.0 mi SSW 16.1 mph - N/A Snow Light Snow
1:55 AM 21.2 °F 6.8 °F 17.6 °F 86% 29.79 in 10.0 mi SW 17.3 mph - N/A Snow Light Snow
2:15 AM 21.2 °F 6.8 °F 17.6 °F 86% 29.79 in 10.0 mi SW 17.3 mph - N/A   Overcast
2:35 AM 21.2 °F 7.8 °F 17.6 °F 86% 29.79 in 10.0 mi SW 15.0 mph - N/A   Overcast
2:55 AM 21.2 °F 6.8 °F 15.8 °F 80% 29.78 in 10.0 mi SW 17.3 mph - N/A   Overcast
3:15 AM 21.2 °F 8.3 °F 15.8 °F 80% 29.78 in 10.0 mi SW 13.8 mph - N/A   Overcast
3:35 AM 21.2 °F 7.3 °F 15.8 °F 80% 29.77 in 10.0 mi SW 16.1 mph - N/A Snow Light Snow
3:55 AM 19.4 °F 5.5 °F 15.8 °F 86% 29.77 in 10.0 mi SW 15.0 mph - N/A   Mostly Cloudy
4:15 AM 19.4 °F 6.0 °F 15.8 °F 86% 29.76 in 10.0 mi SW 13.8 mph - N/A   Partly Cloudy
4:35 AM 19.4 °F 6.6 °F 14.0 °F 80% 29.77 in 10.0 mi SW 12.7 mph - N/A   Clear
4:55 AM 17.6 °F 3.7 °F 14.0 °F 86% 29.76 in 10.0 mi WSW 13.8 mph - N/A   Clear
5:15 AM 17.6 °F 4.3 °F 14.0 °F 86% 29.76 in 10.0 mi WSW 12.7 mph - N/A   Clear
5:35 AM 17.6 °F 4.3 °F 14.0 °F 86% 29.77 in 10.0 mi WSW 12.7 mph - N/A   Clear
5:55 AM 17.6 °F 5.0 °F 12.2 °F 79% 29.77 in 10.0 mi WSW 11.5 mph - N/A   Clear
6:15 AM 15.8 °F 1.4 °F 12.2 °F 86% 29.77 in 10.0 mi West 13.8 mph - N/A   Clear
6:35 AM 15.8 °F 0.3 °F 12.2 °F 86% 29.77 in 10.0 mi West 16.1 mph - N/A   Clear
6:55 AM 14.0 °F -0.8 °F 10.4 °F 86% 29.77 in 10.0 mi West 13.8 mph - N/A   Clear
7:15 AM 15.8 °F 1.4 °F 12.2 °F 86% 29.77 in 10.0 mi West 13.8 mph - N/A   Clear
7:35 AM 17.6 °F 1.7 °F 14.0 °F 86% 29.77 in 10.0 mi West 18.4 mph - N/A   Clear
7:55 AM 15.8 °F -0.6 °F 14.0 °F 93% 29.77 in 10.0 mi West 18.4 mph - N/A   Clear
8:15 AM 17.6 °F 2.2 °F 14.0 °F 86% 29.77 in 10.0 mi WNW 17.3 mph - N/A Snow Light Snow
8:35 AM 15.8 °F -0.6 °F 14.0 °F 93% 29.78 in 10.0 mi WNW 18.4 mph - N/A   Clear
8:55 AM 17.6 °F 3.2 °F 14.0 °F 86% 29.78 in 10.0 mi West 15.0 mph 19.6 mph N/A   Clear
9:15 AM 17.6 °F 3.2 °F 14.0 °F 86% 29.79 in 10.0 mi West 15.0 mph - N/A   Clear
9:35 AM 17.6 °F 2.7 °F 14.0 °F 86% 29.78 in 10.0 mi West 16.1 mph - N/A   Clear
9:55 AM 17.6 °F 2.7 °F 14.0 °F 86% 29.79 in 10.0 mi West 16.1 mph - N/A   Clear
10:15 AM 17.6 °F 2.7 °F 14.0 °F 86% 29.80 in 10.0 mi WNW 16.1 mph - N/A   Clear
10:35 AM 17.6 °F 3.2 °F 14.0 °F 86% 29.80 in 10.0 mi WNW 15.0 mph - N/A   Clear
10:55 AM 19.4 °F 6.0 °F 15.8 °F 86% 29.80 in 10.0 mi WNW 13.8 mph - N/A   Clear
11:15 AM 19.4 °F 6.0 °F 15.8 °F 86% 29.81 in 10.0 mi WNW 13.8 mph - N/A   Clear
11:35 AM 21.2 °F 8.9 °F 17.6 °F 86% 29.81 in 10.0 mi WNW 12.7 mph - N/A   Clear
11:55 AM 23.0 °F 9.6 °F 19.4 °F 86% 29.81 in 10.0 mi WNW 16.1 mph - N/A   Clear
12:15 PM 24.8 °F 10.3 °F 19.4 °F 80% 29.80 in 10.0 mi WNW 20.7 mph - N/A   Clear
12:35 PM 24.8 °F 11.1 °F 21.2 °F 86% 29.80 in 10.0 mi WNW 18.4 mph - N/A   Clear
12:55 PM 26.6 °F 14.3 °F 21.2 °F 80% 29.80 in 10.0 mi NW 16.1 mph - N/A   Mostly Cloudy
1:15 PM 26.6 °F 14.7 °F 23.0 °F 86% 29.80 in 10.0 mi WNW 15.0 mph - N/A   Mostly Cloudy
1:35 PM 28.4 °F 16.6 °F 23.0 °F 80% 29.79 in 10.0 mi WNW 16.1 mph - N/A   Overcast
1:55 PM 28.4 °F 16.6 °F 24.8 °F 86% 29.78 in 10.0 mi WNW 16.1 mph - N/A   Overcast
2:15 PM 28.4 °F 15.4 °F 24.8 °F 86% 29.78 in 10.0 mi WNW 19.6 mph - N/A   Overcast
2:35 PM 28.4 °F 15.4 °F 24.8 °F 86% 29.78 in 10.0 mi West 19.6 mph - N/A   Mostly Cloudy
2:55 PM 28.4 °F 15.8 °F 24.8 °F 86% 29.78 in 10.0 mi West 18.4 mph - N/A   Mostly Cloudy
3:15 PM 28.4 °F 17.5 °F 24.8 °F 86% 29.78 in 10.0 mi West 13.8 mph - N/A   Mostly Cloudy
3:35 PM 30.2 °F 20.2 °F 24.8 °F 80% 29.78 in 10.0 mi West 12.7 mph - N/A   Clear
3:55 PM 30.2 °F 19.8 °F 26.6 °F 86% 29.79 in 10.0 mi WNW 13.8 mph - N/A   Clear
4:15 PM 30.2 °F 19.3 °F 24.8 °F 80% 29.79 in 10.0 mi West 15.0 mph - N/A   Clear
4:35 PM 28.4 °F 16.6 °F 24.8 °F 86% 29.78 in 10.0 mi West 16.1 mph - N/A   Mostly Cloudy
4:55 PM 28.4 °F 16.6 °F 24.8 °F 86% 29.78 in 10.0 mi West 16.1 mph - N/A   Mostly Cloudy
5:15 PM 28.4 °F 18.5 °F 24.8 °F 86% 29.78 in 10.0 mi West 11.5 mph - N/A   Partly Cloudy
5:35 PM 28.4 °F 19.1 °F 24.8 °F 86% 29.79 in 10.0 mi WNW 10.4 mph - N/A   Clear
5:55 PM 28.4 °F 19.1 °F 24.8 °F 86% 29.79 in 10.0 mi WNW 10.4 mph - N/A   Mostly Cloudy
6:15 PM 26.6 °F 17.5 °F 24.8 °F 93% 29.79 in 10.0 mi WNW 9.2 mph - N/A   Overcast
6:35 PM 28.4 °F 18.5 °F 24.8 °F 86% 29.79 in 10.0 mi WNW 11.5 mph - N/A   Mostly Cloudy
6:55 PM 26.6 °F 17.5 °F 23.0 °F 86% 29.79 in 10.0 mi West 9.2 mph - N/A   Partly Cloudy
7:15 PM 24.8 °F 15.3 °F 23.0 °F 93% 29.79 in 10.0 mi West 9.2 mph - N/A   Clear
7:35 PM 24.8 °F 16.1 °F 23.0 °F 93% 29.79 in 10.0 mi WNW 8.1 mph - N/A   Clear
7:55 PM 24.8 °F 17.9 °F 21.2 °F 86% 29.79 in 10.0 mi WNW 5.8 mph - N/A   Clear
8:35 PM 23.0 °F 9.6 °F 19.4 °F 86% 29.78 in 10.0 mi West 16.1 mph - N/A   Partly Cloudy
8:55 PM 23.0 °F 10.6 °F 19.4 °F 86% 29.78 in 10.0 mi West 13.8 mph - N/A   Mostly Cloudy
9:15 PM 23.0 °F 9.6 °F 21.2 °F 93% 29.77 in 10.0 mi West 16.1 mph - N/A   Overcast
9:35 PM 24.8 °F 11.9 °F 21.2 °F 86% 29.77 in 10.0 mi West 16.1 mph - N/A   Overcast
9:55 PM 24.8 °F 12.4 °F 23.0 °F 93% 29.77 in 10.0 mi West 15.0 mph - N/A   Overcast
10:15 PM 24.8 °F 12.4 °F 23.0 °F 93% 29.76 in 10.0 mi West 15.0 mph - N/A   Overcast
10:35 PM 26.6 °F 14.7 °F 23.0 °F 86% 29.75 in 10.0 mi West 15.0 mph - N/A   Overcast
10:55 PM 26.6 °F 15.2 °F 24.8 °F 93% 29.75 in 10.0 mi West 13.8 mph - N/A   Overcast
11:15 PM 26.6 °F 15.7 °F 24.8 °F 93% 29.75 in 10.0 mi West 12.7 mph - N/A   Overcast
11:35 PM 26.6 °F 15.7 °F 24.8 °F 93% 29.74 in 10.0 mi West 12.7 mph - N/A   Overcast
11:55 PM 26.6 °F 15.7 °F 24.8 °F 93% 29.74 in 10.0 mi West 12.7 mph - N/A   Overcast